Content
SEND FEEDBACK

Daily
Averages
Monthly
Summary
Seychelles

VICTORIA, SEYCHELLES


Home > Indian Ocean > Seychelles
Elevation: 10 feet     Latitude: 04 40S     Longitude: 055 31E

WEATHER
 
SELECT A DAY
Number of Records: 132,737;   Date Range: 7/26/96 - 8/29/14
 
SHARE

PRINT THIS DATA

[ ← Previous Day ]
WEATHER ALMANAC - FEBRUARY 13, 2013
[ Next Day → ]
[ °C ]   °F
Weather ElementAverageHighLow
Temperature83.3 °F86 °F (10:00 am)78.8 °F (6:00 am)
Dewpoint74.7 °F77 °F (1:00 pm)71.6 °F (2:00 pm)
Humidity74.7 %89 % (6:00 am)62 % (2:00 pm)
Barometer29.79 in29.85 in (10:00 am)29.74 in (4:00 am)
Wind Speed8.8 mph13.8 mph (12:00 pm)
Weather ElementAverage
Visibility7.9 mi
Wind DirectionNW (312.7 °)

Weather ElementTotal
Precipitation---
Cooling Degree Days17.4 (Base 65)
Growing Degree Days32.4 (Base 50)
Averaged from 26 records on February 13, 2013
WEATHER CONDITIONS BREAKOUT
WIND DIRECTION BREAKOUT
WEATHER BY HOUR - FEBRUARY 13, 2013
[ °C ]   °F
Local TimeTemperatureDewpointHumidityBarometerVisibilityWind DirectionWind SpeedGust SpeedPrecipitationEventsConditions
1:00 AM82.4 °F73.4 °F74 %29.80 in6.2 miWest (280°)6.9 mphMostly Cloudy
2:00 AM82.4 °F75.2 °F79 %29.77 in6.2 miWest (270°)5.8 mphMostly Cloudy
3:00 AM82.4 °F73.4 °F74 %29.77 in6.2 miWNW (300°)6.9 mphMostly Cloudy
4:00 AM80.0 °F76.0 °F83 %29.77 in19.0 miWest (280°)2.3 mphRainLight Rain Showers
4:00 AM80.6 °F75.2 °F84 %29.74 in6.2 miWest (280°)2.3 mphMostly Cloudy
5:00 AM80.6 °F75.2 °F84 %29.77 in6.2 miWest (280°)2.3 mphMostly Cloudy
6:00 AM78.8 °F75.2 °F89 %29.77 in6.2 miWNW (300°)5.8 mphMostly Cloudy
7:00 AM80.6 °F75.2 °F84 %29.80 in6.2 miWNW (300°)5.8 mphMostly Cloudy
8:00 AM82.4 °F75.2 °F79 %29.83 in6.2 miNNW (330°)9.2 mphMostly Cloudy
9:00 AM84.2 °F75.2 °F74 %29.83 in6.2 miNorth (350°)10.4 mphMostly Cloudy
10:00 AM85.0 °F75.0 °F65 %29.85 in12.0 miNNW (330°)10.4 mphPartly Cloudy
10:00 AM86.0 °F75.2 °F70 %29.83 in6.2 miNNW (330°)10.4 mphMostly Cloudy
11:00 AM86.0 °F75.2 °F70 %29.83 in6.2 miNorth (350°)10.4 mphMostly Cloudy
12:00 PM86.0 °F75.2 °F70 %29.83 in6.2 miNNW (340°)13.8 mphMostly Cloudy
1:00 PM86.0 °F77.0 °F74 %29.77 in6.2 miNNW (340°)13.8 mphScattered Clouds
2:00 PM86.0 °F71.6 °F62 %29.77 in6.2 miNNW (330°)13.8 mphScattered Clouds
3:00 PM86.0 °F73.4 °F66 %29.74 in6.2 miNorth (350°)12.7 mphScattered Clouds
4:00 PM85.0 °F74.0 °F63 %29.75 in19.0 miNNW (340°)11.5 mphPartly Cloudy
4:00 PM84.2 °F73.4 °F70 %29.74 in6.2 miNNW (340°)11.5 mphScattered Clouds
5:00 PM84.2 °F73.4 °F70 %29.74 in6.2 miNNW (340°)11.5 mphScattered Clouds
6:00 PM84.2 °F73.4 °F70 %29.74 in6.2 miNNW (330°)11.5 mphMostly Cloudy
7:00 PM82.4 °F75.2 °F79 %29.77 in6.2 miNW (320°)11.5 mphMostly Cloudy
8:00 PM82.4 °F75.2 °F79 %29.77 in6.2 miWest (280°)5.8 mphMostly Cloudy
9:00 PM82.4 °F75.2 °F79 %29.80 in6.2 miWest (280°)5.8 mphMostly Cloudy
10:00 PM82.0 °F75.0 °F73 %29.83 in19.0 miWest (280°)9.2 mph
11:00 PM82.4 °F75.2 °F79 %29.83 in6.2 miWest (280°)6.9 mphMostly Cloudy
Hourly data recorded from FSIA, located miles away from Victoria, Seychelles







STORIES FROM OUR PARTNERS